This is the latest recevied weather packets stored in our database for station/object KN6ZYR. If no packets are shown the sender has not sent any weather packets the latest 10 day(s).
| Time | Temp. | Humidity | Pressure | Rain* | Wind** | Luminosity | Snow |
|---|---|---|---|---|---|---|---|
| 1777938072 | 19.44° C | 25% | 1012 hPa | 0 mm | - | 141 W/m² | - |
| 1777937767 | 20° C | 26% | 1012 hPa | 0 mm | - | 169 W/m² | - |
| 1777937464 | 19.44° C | 25% | 1012.1 hPa | 0 mm | - | 202 W/m² | - |
| 1777937161 | 20° C | 25% | 1012.1 hPa | 0 mm | - | 480 W/m² | - |
| 1777936858 | 20° C | 25% | 1012.2 hPa | 0 mm | - | 523 W/m² | - |
| 1777936555 | 21.11° C | 23% | 1012.2 hPa | 0 mm | - | 525 W/m² | - |
| 1777936251 | 19.44° C | 25% | 1012.2 hPa | 0 mm | - | 538 W/m² | - |
| 1777935947 | 20° C | 24% | 1012.3 hPa | 0 mm | - | 479 W/m² | - |
| 1777935646 | 20.56° C | 25% | 1012.4 hPa | 0 mm | - | 482 W/m² | - |
| 1777935343 | 20.56° C | 24% | 1012.6 hPa | 0 mm | - | 498 W/m² | - |
| 1777935040 | 19.44° C | 26% | 1012.3 hPa | 0 mm | - | 591 W/m² | - |
| 1777934736 | 19.44° C | 25% | 1012.4 hPa | 0 mm | - | 484 W/m² | - |
| 1777934434 | 19.44° C | 26% | 1012.6 hPa | 0 mm | - | 626 W/m² | - |
| 1777934131 | 19.44° C | 27% | 1012.8 hPa | 0 mm | - | 645 W/m² | - |
| 1777933826 | 18.89° C | 28% | 1012.5 hPa | 0 mm | - | 634 W/m² | - |
| 1777933523 | 18.89° C | 28% | 1012.8 hPa | 0 mm | - | 624 W/m² | - |
| 1777933221 | 19.44° C | 28% | 1012.8 hPa | 0 mm | - | 624 W/m² | - |
| 1777932918 | 19.44° C | 26% | 1012.9 hPa | 0 mm | - | 634 W/m² | - |
| 1777932615 | 18.33° C | 27% | 1013.2 hPa | 0 mm | - | 654 W/m² | - |
| 1777932311 | 18.89° C | 27% | 1013 hPa | 0 mm | - | 684 W/m² | - |
| 1777932008 | 18.33° C | 29% | 1013.3 hPa | 0 mm | - | 720 W/m² | - |
| 1777931705 | 17.78° C | 31% | 1013.4 hPa | 0 mm | - | 783 W/m² | - |
| 1777931402 | 17.22° C | 32% | 1013.3 hPa | 0 mm | - | 748 W/m² | - |
| 1777931098 | 16.67° C | 32% | 1013.6 hPa | 0 mm | - | 374 W/m² | - |
| 1777930795 | 16.67° C | 33% | 1013.7 hPa | 0 mm | - | 288 W/m² | - |
* Rain latest hour (hover to see other rain measurements)
** Current wind speed in m/s (hover to see current wind gust speed)